Weather in Kudahuvadhoo

Maldives     2°40′17″N   72°53′40″E
temp.,
°C
wind,
m/s
gust,
m/s
humid.,
%
clouds,
%
prec.,
mm/h
press.,
hPa
HPBL,
m
29 july, thu
thu2923:00+28wnw3476100 2.9 1012567
02:00+28nw337365 0.0 1011784
05:00+28nw33736 0.0 1010726
08:00+28nw3375100 0.4 1013560
11:00+28w3375100 0.9 1013475
14:00+28w3371100 0.6 1010800
17:00+28w3371100 0.7 1011822
20:00+28wnw3475100 1.8 1013437
30 july, fri
fri3023:00+27wnw337695 4.5 1014300
02:00+27w3373100 0.4 1012639
05:00+28wsw3472100 0.4 1012669
08:00+28wsw337287 0.0 1014710
11:00+28wsw3472100 0.0 1014724
14:00+28wsw337199 0.0 1012790
17:00+28wsw4471100 0.0 1012867
20:00+28w457351 0.0 1013846
31 july, sat
sat3123:00+28wsw4473100 0.0 1013795
02:00+28wsw5576100 0.1 1011772
05:00+28wsw4475100 0.1 1012761
08:00+28w447493 0.0 1014695
11:00+28w3373100 0.0 1014714
14:00+28wsw4473100 0.0 1011788
17:00+28wnw3371100 0.0 1012754
20:00+28w4473100 0.0 1013784
1 august, sun
sun123:00+28w347348 0.0 1014754
02:00+28wnw3376100 0.6 1011636
05:00+27wnw337895 2.2 1012362
08:00+28wnw457588 1.2 1013618
11:00+28w557176 1.9 1012838
14:00+28w4569100 0.3 1010899
17:00+28w567190 0.3 1010936
20:00+28w557249 1.6 1012918
2 august, mon
mon223:00+27wsw3476100 4.0 1013356
02:00+27wsw4575100 5.1 1011432
05:00+28wsw5572100 5.7 1011721
08:00+28wsw5574100 1.5 1013621
11:00+27w4579100 6.4 1013321
14:00+27w557962 4.5 1011469
17:00+27wnw6779100 8.4 1011643
20:00+26wnw8884100 5.8 1013591